This is the latest recevied weather packets stored in our database for station/object OK1CBR-13. If no packets are shown the sender has not sent any weather packets the latest 10 day(s).
| Time | Temp. | Humidity | Pressure | Rain* | Wind** | Luminosity | Snow |
|---|---|---|---|---|---|---|---|
| 1778177254 | 14.44° C | 77% | 1014.2 hPa | - | - | - | - |
| 1778176654 | 14.44° C | 77% | 1014.2 hPa | - | - | - | - |
| 1778176055 | 14.44° C | 75% | 1014.1 hPa | - | - | - | - |
| 1778175454 | 15° C | 74% | 1014.1 hPa | - | - | - | - |
| 1778174854 | 15° C | 72% | 1013.9 hPa | - | - | - | - |
| 1778174254 | 15° C | 72% | 1013.9 hPa | - | - | - | - |
| 1778173654 | 15.56° C | 68% | 1013.8 hPa | - | - | - | - |
| 1778173054 | 16.11° C | 66% | 1013.7 hPa | - | - | - | - |
| 1778172455 | 16.11° C | 63% | 1013.5 hPa | - | - | - | - |
| 1778171855 | 17.78° C | 55% | 1013.3 hPa | - | - | - | - |
| 1778171254 | 18.33° C | 54% | 1013.1 hPa | - | - | - | - |
| 1778170656 | 19.44° C | 51% | 1013.1 hPa | - | - | - | - |
| 1778170055 | 18.89° C | 51% | 1013.1 hPa | - | - | - | - |
| 1778169457 | 19.44° C | 48% | 1013 hPa | - | - | - | - |
| 1778168853 | 20° C | 45% | 1013 hPa | - | - | - | - |
| 1778168253 | 21.67° C | 45% | 1013 hPa | - | - | - | - |
| 1778167653 | 20° C | 46% | 1013 hPa | - | - | - | - |
| 1778167053 | 21.11° C | 47% | 1012.9 hPa | - | - | - | - |
| 1778166453 | 20° C | 47% | 1013 hPa | - | - | - | - |
| 1778165853 | 18.89° C | 49% | 1012.9 hPa | - | - | - | - |
| 1778165253 | 21.11° C | 46% | 1012.9 hPa | - | - | - | - |
| 1778164653 | 20° C | 47% | 1012.9 hPa | - | - | - | - |
| 1778164053 | 20° C | 45% | 1012.9 hPa | - | - | - | - |
| 1778163453 | 19.44° C | 48% | 1013 hPa | - | - | - | - |
| 1778162853 | 18.89° C | 51% | 1013.1 hPa | - | - | - | - |
* Rain since midnight (hover to see other rain measurements)
** Current wind speed in m/s (hover to see current wind gust speed)